Regional Weather Roundup
Issued by NWS Upton, NY

Home | Current Version | Previous Version | Text Only | Print | Product List | Glossary On
Versions: 1 2 3 4 5 6 7 8 9 10 11 12 13 14 15 16 17 18 19 20 21 22 23 24 25 26 27 28 29 30 31 32 33 34 35 36 37 38 39 40 41 42 43 44 45 46 47 48 49
000
ASUS41 KOKX 192105
RWROKX

REGIONAL WEATHER ROUNDUP
NATIONAL WEATHER SERVICE NEW YORK NY
500 PM EDT FRI SEP 19 2014

NOTE: "FAIR" INDICATES FEW OR NO CLOUDS BELOW 12,000 FEET WITH NO
SIGNIFICANT WEATHER AND/OR OBSTRUCTIONS TO VISIBILITY.

NYZ071-072-176-178-NJZ106-104-192200-
NEW YORK CITY METRO AREA


CITY           SKY/WX    TMP DP  RH WIND       PRES   REMARKS
CENTRAL PARK   SUNNY     64  44  48 NE9       30.36F
LAGUARDIA APRT MOSUNNY   63  45  51 NE12      30.33F
KENNEDY INTL   MOSUNNY   64  47  53 SE14G20   30.35S
NEWARK/LIBERTY MOSUNNY   64  49  57 SE9       30.33F
BRNX BOT. GARD   N/A     63  43  48 E5        30.35R
TETERBORO      SUNNY     65  44  46 E6        30.32F
$$

NYZ177-179-078>081-192200-
LONG ISLAND NEW YORK

CITY           SKY/WX    TMP DP  RH WIND       PRES   REMARKS
FARMINGDALE    SUNNY     63  47  55 SE13      30.35F
ISLIP          MOSUNNY   62  45  53 SE9G20    30.34F
SHIRLEY        SUNNY     61  44  53 SE10G16   30.36S
WESTHAMPTON    SUNNY     61  42  49 SE12      30.37F
MONTAUK POINT    N/A     60  42  51 E6        30.39R
$$

NYZ052-065-067-192200-
HUDSON VALLEY

CITY           SKY/WX    TMP DP  RH WIND       PRES   REMARKS
WHITE PLAINS   MOSUNNY   61  42  49 E7        30.34F
NEWBURGH       MOSUNNY   64  45  48 SE9       30.34F
MONTGOMERY     MOSUNNY   65  44  46 SE3       30.32F
POUGHKEEPSIE   SUNNY     65  41  41 CALM      30.32F
ALBANY         MOSUNNY   61  38  42 S8        30.33F
$$

NJZ001-105-106-008-010-013-015-019>022-104-192200-
NEW JERSEY

CITY           SKY/WX    TMP DP  RH WIND       PRES   REMARKS
NEWARK/LIBERTY MOSUNNY   64  49  57 SE9       30.33F
TETERBORO      SUNNY     65  44  46 E6        30.32F
CALDWELL       MOSUNNY   64  44  48 S5        30.33F
MORRISTOWN     MOSUNNY   66  46  48 SE6       30.33F
SOMERVILLE     PTSUNNY   65  48  54 VRB3      30.31S
LINDEN         FAIR      68  51  55 SE10      30.35F
SUSSEX         MOSUNNY   67  44  43 VRB3      30.31F
ANDOVER          N/A     65  45  48 VRB5      30.32F
TRENTON        SUNNY     65  50  58 E10       30.32F
MILLVILLE      MOSUNNY   68  54  60 E14       30.30R
ATLANTIC CITY  PTSUNNY   66  56  70 NE15G23   30.32S
WRIGHTSTOWN    CLOUDY    63  53  70 E12       30.31F
TOMS RIVER     PTSUNNY   63  54  72 E7        30.34F
BELMAR         CLOUDY    61  48  63 E12       30.35S
$$

PAZ047>061-062-071-192200-
EASTERN PENNSYLVANIA

CITY           SKY/WX    TMP DP  RH WIND       PRES   REMARKS
PHILADELPHIA   PTSUNNY   68  52  56 E10       30.32R
ALLENTOWN      MOSUNNY   68  46  45 SE5       30.30F
SCRANTON       MOSUNNY   66  46  48 VRB3      30.28F
$$

CTZ002-004>006-009-010-012-RIZ004-006-007-MAZ004-011-015-192200-
SOUTHERN NEW ENGLAND
 IN CT

CITY           SKY/WX    TMP DP  RH WIND       PRES   REMARKS
BRADLEY INTL   SUNNY     63  35  35 NW5       30.35S
HARTFORD       SUNNY     62  36  37 S5        30.35F
DANBURY        SUNNY     62  41  46 E5        30.35F
WTRBRY/OXFORD  SUNNY     63  37  39 S6        30.36S
BRIDGEPORT     MOSUNNY   62  44  51 SE9       30.35F
MERIDEN        SUNNY     64  34  32 VRB5      30.35S
NEW HAVEN      MOSUNNY   64  41  42 SE8       30.36F
CHESTER        FAIR      61  37  41 E5        30.36F
GROTON         SUNNY     60  40  47 SE14      30.35F
WILLIMANTIC    SUNNY     61  32  33 VRB6      30.36F

 IN RI

CITY           SKY/WX    TMP DP  RH WIND       PRES   REMARKS
PROVIDENCE     MOSUNNY   59  35  40 E10       30.38S
BLOCK ISLAND   SUNNY     57  37  47 E12       30.38R
WESTERLY       SUNNY     61  39  44 E12       30.37S

 IN MA

CITY           SKY/WX    TMP DP  RH WIND       PRES   REMARKS
BOSTON         MOSUNNY   54  32  43 SE8       30.41F
WORCESTER      SUNNY     55  31  39 VRB5      30.37S
WESTFIELD      SUNNY     61  36  39 VRB3      30.35S
PROVINCETOWN   SUNNY     55  34  44 NE8       30.41S
NANTUCKET      SUNNY     57  37  47 NE12      30.37F
$$

ANZ330-335-338-340-345-350-353-355-192200-
COASTAL MARINE OBSERVATIONS


STATION/POSITION TIME  SKY/WX   TEMP    WIND        PRES    VSBY  WAVE
                                AIR SEA DIR/SP/G                  HT/PER
                 (UTC)          (F)     (DEG/KT/KT) (MB)    (MI)  (FT/S)
NY HARB ENTRANCE 2100            62 70   90/ 14/ 17 1027.7          4/ 6
4S FIRE IS       2100               70                N/A           4/ 6
20S FIRE ISLAND  2100            60 67   60/ 17/ 21 1028.0          5/ 7
23SW MTP         2100                                 N/A           4/ 6
HUDSON CANYON    2100            64 72   60/ 19/ 23 1026.2          6/ 7
EXECUTION ROCKS  2100            65 71   50/  8/ 12   N/A
WESTERN LI SOUND 2100            61      90/  8/ 10   N/A           1/ 4
CENTRAL LI SOUND 2100            60 70  120/  8/ 12   N/A           1/ 3
EASTERN LI SOUND 2000            64 68  130/ 12/ 16   N/A
ROBBINS REEF     2100            62     140/ 13/ 19 1025.9
$$


>>>>>>>>>>>>>>>>>>>>>>>>>>>> KEY <<<<<<<<<<<<<<<<<<<<<<<<<<<
>                                                          <
>     SKY/WX - SKY CONDITION/PRESENT WEATHER               <
>     TMP    - TEMPERATURE IN FAHRENHEIT                   <
>     DP     - DEWPOINT IN FAHRENHEIT                      <
>     RH     - RELATIVE HUMIDITY IN PERCENT                <
>     WIND   - DIRECTION AND SPEED IN MPH                  <
>     PRES   - MEAN SEA LEVEL PRESSURE IN INCHES OF HG     <
>     WCI    - WIND CHILL INDEX                            <
>     VSB    - VISIBILITY IN MILES                         <
>     HX     - HEAT INDEX                                  <
>     TC     - TEMPERATURE IN CELSIUS                      <
>     VRB    - VARIABLE WIND DIRECTION                     <
>                                                          <
>>>>>>>>>>>>>>>>>>>>>>>>>>>> KEY <<<<<<<<<<<<<<<<<<<<<<<<<<<




USA.gov is the U.S. government's official web portal to all federal, state and local government web resources and services.